Home   Weather   Mount Isa   Past weeks

Flag for Australia Past Weather in Mount Isa, Queensland, Australia — Yesterday and Last 2 Weeks

Now
73 °F

Clear.


Feels Like: 77 °F
Forecast: 80 / 104 °F
Wind: 2 mph from Northwest

Location: Mount Isa Amo

Current Time: Dec 6, 2016 at 2:51:57 am

Latest Report: Dec 6, 2016 at 2:00 am


Visibility: N/A

Pressure: 29.86 "Hg

Humidity: 38%

Dew Point: 46 °F

Location of Mount IsaLocation

Past Weather in Mount Isa — Graph

°F

Mount Isa Temperature Yesterday

Maximum temperature yesterday: 108 °F (at 2:30 pm)
Minimum temperature yesterday: 70 °F (at 2:30 am)
Average temperature yesterday: 88 °F

High & Low Weather Summary for the Past Weeks

 TemperatureHumidityPressure
High108 °F (Dec 5, 2:30 pm)83% (Dec 3, 2:00 am)29.98 "Hg (Dec 3, 2:00 am)
Low66 °F (Nov 30, 5:30 am)6% (Nov 30, 3:30 pm)29.71 "Hg (Nov 21, 4:30 pm)
Average88 °F32%29.82 "Hg
* Reported Nov 21 1:00 am — Dec 6 1:30 am, Mount Isa, Weather by CustomWeather, © 2016

Note: Actual official high and low records may vary slightly from our data, if they occured in-between our weather recording intervals... More about our weather records

Advertising

Mount Isa Weather History for the Previous 24 Hours

Scroll right to see more
 ConditionsComfort  
Time TempWeatherWind HumidityBarometerVisibility
1:30 am
Tue, Dec 6
73 °FClear.No wind38%29.86 "HgN/A
1:00 am73 °FClear.No wind38%29.86 "HgN/A
12:30 am75 °FClear.2 mph36%29.86 "HgN/A
12:00 am75 °FClear.No wind34%29.86 "HgN/A
11:30 pm
Mon, Dec 5
75 °FClear.No wind34%29.86 "HgN/A
11:00 pm77 °FClear.No wind32%29.86 "HgN/A
10:30 pm79 °FClear.No wind30%29.86 "HgN/A
10:00 pm81 °FClear.No wind28%29.83 "HgN/A
9:30 pm82 °FClear.5 mph25%29.83 "HgN/A
9:00 pm86 °FClear.5 mph22%29.83 "HgN/A
8:30 pm91 °FClear.6 mph18%29.83 "HgN/A
8:00 pm95 °FClear.8 mph16%29.83 "HgN/A
7:30 pm97 °FClear.10 mph16%29.80 "HgN/A
7:00 pm99 °FSunny.13 mph15%29.80 "HgN/A
6:30 pm100 °FSunny.13 mph14%29.80 "HgN/A
6:00 pm102 °FSunny.13 mph14%29.80 "HgN/A
5:30 pm104 °FSunny.14 mph12%29.80 "HgN/A
5:00 pm104 °FSunny.12 mph13%29.77 "HgN/A
4:30 pm104 °FSunny.15 mph12%29.80 "HgN/A
4:00 pm106 °FSunny.15 mph13%29.80 "HgN/A
3:00 pm106 °FSunny.17 mph13%29.80 "HgN/A
2:30 pm108 °FSunny.14 mph15%29.83 "HgN/A
2:00 pm104 °FSunny.17 mph16%29.83 "HgN/A
1:30 pm104 °FSunny.15 mph14%29.83 "HgN/A
1:00 pm102 °FSunny.9 mph16%29.86 "HgN/A
12:30 pm100 °FSunny.9 mph17%29.89 "HgN/A
12:00 pm100 °FSunny.10 mph18%29.89 "HgN/A
11:30 am100 °FSunny.12 mph20%29.89 "HgN/A
11:00 am100 °FSunny.13 mph21%29.92 "HgN/A
10:30 am99 °FSunny.7 mph24%29.92 "HgN/A
10:00 am97 °FSunny.9 mph27%29.92 "HgN/A
9:00 am93 °FSunny.1 mph32%29.95 "HgN/A
8:00 am90 °FSunny.No wind31%29.95 "HgN/A
7:30 am86 °FSunny.3 mph29%29.95 "HgN/A
7:00 am81 °FSunny.5 mph34%29.92 "HgN/A
6:30 am72 °FSunny.1 mph47%29.92 "HgN/A
6:00 am72 °FSunny.5 mph47%29.92 "HgN/A
5:30 am70 °FClear.No wind46%29.89 "HgN/A
5:00 am70 °FClear.No wind46%29.89 "HgN/A
4:30 am72 °FClear.No wind44%29.86 "HgN/A
4:00 am70 °FClear.No wind46%29.86 "HgN/A
3:30 am70 °FClear.No wind43%29.86 "HgN/A
3:00 am72 °FClear.No wind44%29.86 "HgN/A
2:30 am70 °FClear.3 mph40%29.83 "HgN/A
2:00 am72 °FClear.No wind41%29.83 "HgN/A
Weather by CustomWeather, © 2016

See weather overviewHow to use our weather pages